RH
49 56 57 43 37 35 43 42 40 33 29 34 34 32 27 22 22 23 22 22 21 20 20 21 22 24 24 23 24 27 26 30 37 45 54 57 59 68 78 82 81 82 73 64
67 76 43 37 39 43 45 47 42 34 30 37 35 33 27 25 23 22 21 21 20 18 18 17 19 23 25 26 29 29 28 31 40 48 54 56 65 86 91 89 79 72 65 57
63 49 44 46 50 53 49 48 44 42 35 34 37 37 25 20 21 21 20 19 18 18 17 14 14 17 24 26 27 30 29 33 43 49 56 60 81 90 92 84 72 68 70 66
54 42 48 51 54 48 54 37 42 46 51 54 40 56 31 22 19 19 18 17 17 17 16 16 15 14 16 24 28 30 32 37 47 56 61 69 80 79 78 75 69 63 56 50
63 59 56 58 50 44 52 45 48 49 57 66 53 63 34 18 16 15 15 15 15 15 15 15 16 18 17 17 27 34 36 40 53 59 64 73 70 74 74 72 66 57 51 39
48 43 49 50 46 46 49 53 55 55 63 87 47 46 32 16 12 13 11 14 15 14 14 15 16 18 20 21 26 38 41 48 56 65 65 67 67 66 68 66 63 52 46 37
59 56 49 45 56 51 59 68 78 85 89 65 26 31 31 16 16 16 16 15 14 14 16 16 18 20 21 24 26 41 47 52 60 63 62 64 68 65 65 64 63 50 42 34
72 78 54 56 59 63 65 66 64 68 49 37 27 41 25 14 17 18 17 17 16 16 18 22 22 22 23 29 30 42 51 53 58 61 62 66 63 63 66 58 48 41 39 36
61 68 49 51 52 51 68 89 53 70 53 60 35 21 16 15 16 16 17 18 20 21 23 28 28 24 24 30 33 45 53 53 57 61 64 63 63 60 52 42 36 33 32 32
53 83 52 53 52 52 51 43 79 87 81 60 32 29 28 22 20 19 20 20 21 23 28 31 28 26 22 31 36 50 52 54 58 62 60 57 48 42 38 36 34 34 35 31
52 61 70 63 75 66 67 73 66 52 61 59 57 37 20 24 22 22 21 19 26 27 31 38 30 25 26 35 44 51 53 56 58 57 50 45 42 36 34 32 31 31 31 30
52 68 81 70 45 41 43 56 59 85 65 70 71 58 26 25 24 24 24 26 26 24 36 44 38 34 38 45 54 54 55 56 53 48 46 41 35 33 33 33 31 30 29 27
53 78 82 79 63 47 58 52 49 66 79 92 90 58 24 23 27 25 29 28 24 24 36 48 47 48 49 59 58 55 54 52 48 44 39 34 34 35 35 34 33 28 27 27
50 65 84 71 59 53 98 71 66 98 96 69 70 56 40 35 36 34 27 26 28 27 48 52 52 52 54 60 55 53 51 47 42 38 33 32 31 30 29 28 28 28 28 29
59 92 69 68 58 56 62 68 68 96 96 97 68 70 56 53 48 40 35 32 30 43 59 60 59 56 58 56 50 46 44 40 36 34 33 32 30 30 30 29 29 29 30 31
70 86 74 92 62 57 68 54 55 73 95 93 95 93 62 48 38 47 42 36 52 57 74 68 61 60 51 46 43 40 36 35 35 35 34 33 32 31 32 31 31 33 34 34
84 97 98 78 55 51 76 69 75 92 90 93 90 58 45 48 61 79 73 74 65 67 72 64 60 50 44 40 37 37 37 39 40 40 36 35 34 33 32 32 34 35 35 35
78 90 90 77 56 75 42 48 60 74 80 69 72 62 56 54 55 76 85 79 70 68 64 58 51 48 42 40 40 40 41 42 43 41 39 34 33 32 32 34 37 37 36 34
73 95 83 78 65 49 40 49 57 80 86 67 70 59 54 52 84 88 87 67 65 58 53 50 46 45 49 48 50 47 47 41 38 36 35 32 32 31 33 35 35 35 34 34
71 78 96 74 84 73 49 49 56 65 97 58 77 74 65 57 94 96 83 58 56 52 52 54 57 68 82 76 71 68 60 55 54 40 30 30 30 32 36 37 37 37 37 37
93 98 95 84 85 55 36 44 62 65 81 61 76 75 67 68 76 85 75 58 50 54 60 60 57 68 62 60 47 39 36 33 31 29 30 33 34 34 38 38 37 37 38 38
82 90 92 98 98 81 41 46 60 52 61 57 86 74 72 69 73 74 64 57 51 48 43 39 37 35 34 34 35 34 33 32 33 35 35 34 36 37 38 38 38 38 38 36
61 59 82 63 55 36 42 47 44 48 53 54 62 87 78 80 91 82 68 72 75 62 60 49 40 42 43 43 42 41 38 35 32 31 35 38 38 37 37 38 39 37 37 34
48 43 55 53 41 43 41 41 49 56 57 58 64 61 90 77 73 67 61 57 55 60 64 57 50 42 39 38 37 37 35 32 32 36 38 38 38 37 41 40 40 37 35 35
50 55 54 51 44 42 49 53 55 59 59 56 58 60 64 74 77 73 80 57 49 44 41 38 37 37 38 38 37 35 33 32 35 37 39 42 41 38 39 41 38 37 41 47
50 50 56 48 48 48 51 56 58 58 63 56 58 60 58 60 65 58 55 50 46 44 40 38 38 38 38 37 36 34 35 37 39 39 38 39 40 40 39 37 33 37 33 30
Wind_Speed
9 9 13 16 15 16 3 7 10 10 9 17 19 21 21 20 22 23 21 21 22 23 19 24 26 27 30 31 29 28 24 22 21 22 23 23 21 21 21 22 21 19 18 17
6 14 15 9 8 10 12 13 14 14 13 10 18 28 24 26 27 24 25 25 25 24 23 23 29 29 30 31 30 28 28 24 24 22 22 22 20 19 18 16 18 18 18 18
9 1 7 13 10 10 12 13 13 15 15 18 22 26 23 16 19 25 27 27 25 23 23 23 23 28 28 30 30 29 28 26 25 23 22 19 22 18 17 19 20 19 21 22
12 7 4 9 12 11 11 9 10 11 9 6 4 10 17 17 17 16 15 15 15 18 19 19 21 21 27 30 29 28 29 26 26 25 26 27 21 19 18 26 22 21 18 20
6 7 13 11 12 8 5 2 5 7 9 12 14 8 12 8 14 13 11 12 12 12 14 15 16 21 26 26 29 27 26 26 26 28 26 27 21 19 25 26 26 24 20 19
8 4 7 9 6 9 3 4 8 8 8 8 15 15 15 6 7 8 8 5 6 8 10 11 14 18 20 24 21 26 26 26 27 28 25 26 25 27 28 29 28 28 23 20
12 14 7 9 7 6 8 2 2 4 4 8 2 11 17 13 17 7 7 9 9 9 11 13 14 13 17 20 24 23 25 26 27 27 26 26 26 26 29 33 31 30 26 25
9 6 18 11 13 5 14 8 4 5 4 8 7 10 6 10 2 5 7 10 12 12 12 11 15 14 17 19 23 24 26 26 27 27 25 24 25 25 26 27 31 27 25 23
6 2 2 8 7 12 6 8 10 11 16 10 9 16 17 19 19 9 12 16 14 10 9 13 16 15 17 18 23 24 26 25 26 26 26 24 24 25 27 28 27 30 24 22
0 3 6 6 5 10 12 0 2 2 5 7 10 16 13 12 12 9 9 9 10 9 9 13 14 13 16 19 21 25 28 27 26 26 26 26 24 24 30 30 29 30 25 21
6 3 6 5 10 12 10 10 6 6 7 5 10 10 12 10 9 9 11 9 7 11 11 11 11 12 10 16 21 25 26 26 27 26 26 26 25 27 31 33 29 27 23 20
9 3 5 11 8 8 14 11 16 6 7 7 10 20 14 18 10 14 16 14 11 11 7 9 11 4 7 14 18 22 25 26 27 26 27 27 30 32 33 30 27 23 21 17
10 5 3 3 3 7 9 16 17 17 14 22 14 15 4 12 17 15 13 13 13 12 6 5 6 4 7 11 17 21 23 25 27 28 29 31 30 32 30 29 25 22 19 16
8 4 7 4 8 6 5 13 16 14 7 22 23 33 28 25 19 17 17 17 15 12 5 5 4 6 8 12 19 22 23 25 28 30 31 31 30 31 29 26 23 20 17 15
5 5 10 16 20 20 19 20 19 18 20 15 30 26 28 22 21 17 15 15 13 7 5 3 5 8 9 15 20 21 22 26 30 31 31 30 30 29 26 24 21 19 16 13
4 4 6 12 19 18 16 18 20 19 18 15 16 21 21 17 11 11 13 10 7 11 3 5 7 12 13 16 18 22 25 27 30 31 31 30 28 26 24 23 20 17 14 12
5 2 3 5 9 17 6 6 6 9 12 7 9 10 11 10 7 9 10 11 13 16 10 10 11 13 15 18 21 23 27 31 31 32 30 28 25 25 22 21 18 15 12 10
6 8 3 6 11 3 8 4 4 8 10 9 14 14 12 12 7 7 9 12 7 12 12 12 12 14 19 23 22 25 29 30 31 29 27 24 24 23 20 18 15 12 10 8
10 3 3 3 6 14 8 2 5 2 3 8 11 9 10 6 5 2 11 8 10 11 12 12 18 22 24 23 26 26 29 29 28 25 23 22 22 22 18 16 13 10 8 6
10 9 3 3 4 3 2 4 2 3 2 10 9 11 11 10 1 3 7 9 14 14 16 18 22 25 25 22 23 26 25 25 23 22 22 20 20 19 17 14 11 8 6 3
5 3 8 8 5 8 9 3 4 4 5 6 5 9 10 6 5 5 9 10 14 15 19 23 23 23 24 25 26 25 24 22 23 23 22 20 19 19 15 12 9 7 4 1
8 8 4 4 5 8 1 2 5 4 2 2 2 4 6 6 8 9 10 12 12 13 17 20 21 21 22 22 24 24 23 23 24 25 24 21 19 14 11 10 7 4 2 2
5 6 4 7 6 7 1 7 8 5 6 3 4 3 7 6 4 7 8 12 10 11 15 18 20 21 19 19 22 25 21 26 28 26 23 18 15 12 9 7 5 2 2 4
7 7 5 3 5 9 7 7 1 3 5 3 3 5 7 7 9 10 10 10 10 15 17 20 21 20 20 20 23 28 27 26 26 22 17 14 12 9 7 5 3 1 2 4
3 6 5 11 16 9 6 5 4 3 3 5 2 4 9 11 9 9 8 9 10 14 17 17 18 19 20 24 24 25 26 24 21 17 15 12 9 7 5 3 1 1 2 3
7 8 5 5 6 4 5 4 4 4 4 4 7 9 9 11 12 12 10 12 15 15 18 20 21 23 22 23 24 23 19 18 18 15 12 9 7 4 3 1 2 4 5 8
Wind_Direction
193 211 220 225 226 251 310 300 274 275 286 288 278 275 274 271 263 257 255 255 251 247 246 239 238 238 237 233 229 226 225 211 204 199 197 201 195 194 189 194 179 177 176 172
160 230 235 257 275 246 255 259 265 279 285 295 290 283 280 267 257 254 250 246 246 246 242 241 237 231 233 230 227 226 221 211 201 198 198 196 176 159 166 158 163 169 164 163
197 175 223 231 224 237 242 258 271 281 304 293 280 284 262 253 243 242 248 251 249 250 250 244 240 235 226 231 225 219 220 207 198 195 188 176 149 155 163 172 168 172 168 164
236 194 211 200 225 227 256 262 279 280 291 276 48 294 282 278 254 228 241 244 244 245 247 251 252 242 234 225 225 219 213 205 195 189 181 173 169 162 165 163 164 161 152 151
217 216 206 219 228 212 236 340 274 284 285 299 257 240 265 286 267 257 251 249 261 244 245 251 246 244 251 241 220 213 210 202 190 188 180 172 175 169 155 160 156 154 152 146
245 161 211 209 209 218 29 230 263 261 260 257 242 213 276 286 329 2 225 204 220 236 247 250 254 260 243 244 239 202 203 196 187 179 179 181 176 157 152 150 150 151 149 141
219 217 208 230 213 204 191 215 249 226 209 251 272 215 240 276 298 256 241 229 255 276 280 265 257 245 237 230 232 203 200 193 182 182 183 185 170 165 160 156 152 150 148 149
204 187 202 180 212 179 205 205 238 268 249 309 318 250 237 244 216 240 255 267 268 283 275 303 286 237 237 221 220 198 202 190 179 180 178 173 160 162 159 155 151 148 145 151
197 229 235 161 192 210 164 211 245 280 280 274 240 265 267 263 263 306 259 237 252 261 286 310 312 266 226 216 218 196 197 185 176 172 164 157 161 158 151 147 142 141 144 143
156 200 176 175 203 234 222 181 116 211 268 260 256 277 264 255 284 297 261 234 227 261 289 308 324 276 226 217 201 197 193 175 168 162 156 151 154 152 141 139 138 141 139 144
193 209 129 143 210 202 198 227 238 287 242 275 304 265 340 331 310 292 292 287 267 272 288 309 319 292 214 215 182 189 177 162 156 153 145 144 147 143 135 138 137 136 135 140
194 173 244 234 237 225 218 215 219 226 216 238 272 269 294 289 317 303 279 262 258 280 291 307 307 289 216 193 158 172 161 149 147 142 140 141 141 134 130 128 131 133 138 138
166 204 250 152 52 241 232 243 242 242 267 252 261 260 8 280 324 294 274 265 267 285 294 304 287 152 192 147 148 153 150 143 138 139 137 137 134 127 126 128 132 136 135 133
166 207 247 269 322 330 210 230 230 223 248 263 246 272 278 283 294 290 264 275 299 290 308 303 209 147 169 145 138 146 143 142 136 136 136 131 126 125 127 131 133 131 133 130
197 252 247 257 271 273 271 267 261 245 247 252 280 284 284 296 293 287 288 280 276 300 311 235 159 161 140 134 133 136 140 137 134 132 128 122 123 125 127 127 128 128 126 126
220 270 311 283 263 251 257 270 277 278 272 270 268 278 279 276 296 327 309 274 283 301 224 177 157 135 132 131 134 141 138 131 130 123 118 120 122 125 125 125 125 124 123 122
184 219 243 265 298 305 282 258 285 269 273 259 271 279 317 316 324 273 274 276 256 230 161 166 154 139 137 133 143 142 131 123 117 114 117 121 125 122 124 122 122 122 122 124
217 212 209 294 307 263 18 173 279 272 282 326 256 280 298 300 324 25 337 291 107 127 146 144 144 130 127 131 132 129 122 117 115 114 117 122 123 120 122 120 120 121 122 123
218 266 294 277 309 286 290 314 310 352 280 11 350 335 321 343 39 70 353 42 104 127 124 130 125 118 118 121 128 121 111 109 110 114 119 124 125 122 123 120 122 123 122 119
217 218 250 339 311 286 55 32 158 174 279 12 2 343 355 333 220 38 28 78 95 103 113 113 111 108 111 117 117 109 107 112 119 126 123 125 121 120 122 124 122 117 115 119
164 178 222 236 258 272 274 346 164 325 319 356 14 329 1 51 46 83 80 66 95 106 112 116 116 119 130 138 132 125 124 120 122 121 119 116 120 122 120 119 114 113 112 73
175 179 189 184 222 262 105 240 314 349 317 333 304 325 55 78 83 77 80 90 91 104 120 119 118 123 129 129 123 117 114 119 118 120 119 119 118 116 116 114 116 109 77 312
212 198 176 208 221 277 243 283 303 304 291 284 274 163 126 115 96 106 104 111 100 82 84 90 108 106 103 108 117 109 116 125 126 123 117 113 112 110 113 117 115 109 5 340
226 202 234 266 266 258 296 297 7 328 322 357 261 215 163 141 145 130 123 118 122 127 128 132 126 116 109 109 113 119 128 131 125 114 114 114 114 116 109 104 88 35 339 333
342 151 242 255 270 280 94 38 30 59 22 47 58 169 161 136 130 129 126 119 118 122 126 127 118 111 108 114 114 124 130 126 115 116 116 115 116 111 105 94 38 350 353 335
222 234 223 294 22 328 32 38 34 62 76 80 110 114 123 138 135 135 128 128 127 124 118 109 112 112 111 115 117 120 121 122 119 117 119 118 118 115 104 34 344 325 321 325